ボリソフ彗星

2I/Borisov

English version
Home page
Updated on February 19, 2020

---------------------------------------------------------------------

・ プロフィール

符号 2I/2019 Q4
発見日 2019年8月30日
発見光度 17.8等
発見者 Gennady Borisov (MARGO observatory near Nauchnij, Crimea)

・ 写真集

・ 軌道要素

Epoch 2019 Dec. 23.0 TT = JDT 2458840.5
T 2019 Dec. 8.55471 TT                                  Bell
q   2.0065644            (2000.0)            P               Q
z  -1.1745312      Peri.  209.12519     -0.81468709     -0.19308740
 +/-0.0000122      Node   308.14817     +0.56666628     -0.46537376
e   3.3567725      Incl.   44.05274     -0.12318387     -0.86379657
From 2693 observations 2019 Mar. 17-2020 Feb. 3, mean residual 0".9.

・ 星図

・ 光度変化

        H = 12.3  G = 0.15                [    ,-110]  (              〜2019年 8月20日)
        m1 = 10.5 + 5 logΔ + 10.0 log r  [-110,    ]  (2019年 8月20日〜              )

---------------------------------------------------------------------

軌道要素はM.P.E.C. 2020-C98に掲載されたものです。
星図はステラナビゲータ Ver.10 (アストロアーツ) で作成したものです。
光度グラフはComet for Windowsで作成したものです。

---------------------------------------------------------------------

Copyright(C) Seiichi Yoshida (comet@aerith.net). All rights reserved.